Showing default

IRIDE-MS2-HEO-2, 64569

Orbit data source: Space-Track

IRIDE-MS2-HEO-2, 64569 is an Italian payload satellite in SSO that was launched on Mon, 23 Jun 2025 UTC via an FALCON 9 launch vehicle from the Air Force Western Test Range (AFWTR). Payload-class satellites include a variety of spacecraft equipped with specific instruments for various scientific and technological missions. These include communications satellites like Starlink; space stations such as the ISS; scientific satellites like the Hubble; Earth observation satellites from companies like Planet Labs, Umbra, and HawkEye 360; GPS; miniature CubeSats for education and research; and military/defense satellites.

Loading next visibility...
Identifier
64569, 2025-135AT
Orbit
SSO
Country
Flag of ITIT
Related business
Manufacturer
ArgoTec
Mission
Operational Civil Imaging
Bus & Motor
HAWK, Unknown motor
Mass
65 kg wet, 65 kg dry
Launch date (UTC)
2025-06-23 (11 months ago)
Launch vehicle
FALCON 9
Launch site
Air Force Western Test Range (AFWTR)
Object type
Payload
Rocket body
Debris
Shape & HBR
Box + 2 Pan, 3.0 m
Radar Cross Section
0.683 m², Medium (>0.1 m² and < 1m²)

Expand to show TLE details & history
Last TLE update: 7 hours ago

TLE from 7 hours ago
0 IRIDE-MS2-HEO-2
1 64569U 25135AT  26133.29087876  .00000879  00000-0  88873-4 0  9990
2 64569  97.7710 247.9686 0003143 103.8648 256.2921 14.93521498 48674
Epoch: 2026-05-13T06:58Z
TLE epoch observation values (Epoch: 2026-05-13T06:58:51.924Z)
Latitude
-0.0001°
Longitude
-87.80075°
Altitude
590.529 km
Speed
7.565 km/s
True Right ascension
16h 31m 52s
True Declination
0° 00' 00"
Sunlit
Object was in full shadow at epoch
Visualization orbit readout
Latitude
Unknown
Longitude
Unknown
Altitude
Unknown
Speed
Unknown
Apparent Right ascension
Unknown
Apparent Declination
Unknown
Sunlit
N/A
Visualization observer readout
Local Sidereal Time
22:52:20
Azimuth
Unknown
Elevation
Unknown
Doppler factor
Unknown
Orbital elements
Apogee altitude
586.171 km
Perigee altitude
581.795 km
Semi-major axis
6,962.12 km
Eccentricity
0.00031
Inclination
97.771°
RAAN
247.9686°
Arg. of periapsis
103.8648°
True anomaly
256.25711°
Mean anomaly
256.2921°
Eccentric anomaly
256.27461°
Mean motion
3.73621 °/min
Orbital period
96.35 mins
BSTAR
0.000088873
Loading maneuver chart data...
Computing Atmospheric mass density...
Loading historical data...
Loading historical data...
Loading historical data...
Loading historical data...
Loading historical data...
Loading historical data...
Loading historical data...

Documentation

Showing up to 5 results
|